User: anonymous   Login
Location: Asheville, NC
(35.6000°N, 82.5500°W)
Time: 09:58:42
(UTC-04:00)
Language:

ITAMSAT 1 - Orbit

View from above orbital plane
View from above orbital plane
View from above satellite
View from above satellite

Ground track
Ground track

The orbit data is extracted from the following two-line orbital elements,

1 22826U 93061D   18111.92613009 +.00000021 +00000-0 +25903-4 0  9997
2 22826 098.8520 087.0822 0009654 135.3970 224.7990 14.30358918281469
Epoch (UTC): 21 April 2018 22:13:37
Eccentricity: 0.0009654
inclination: 98.8520°
perigee height: 783 km
apogee height: 797 km
right ascension of ascending node: 87.0822°
argument of perigee: 135.3970°
revolutions per day: 14.30358918
mean anomaly at epoch: 224.7990°
orbit number at epoch: 28146

The dashed part of the orbit path shows where the satellite is in the earth's shadow,  

DLR